[[{"header":{"parameterUnit":"m.s-1","parameterCategory":1,"la1":30.2992,"la2":30.254,"lo1":-89.0895,"lo2":-89.0443,"dy":0.0025,"dx":0.0025,"nx":19,"ny":19,"refTime":"2026-05-11T21:00:00:Z","depth":0,"parameterNumber":2,"parameterNumberName":"U-component_of_WINDS"},"data":[0,0,0,-1.3043,-1.3045,-1.3119,-1.3119,-1.3224,-1.3225,0,0,0,0,0,0,0,0,0,0,0,-1.3026,-1.3027,-1.3043,-1.3045,-1.3119,-1.3119,-1.3224,-1.3225,0,0,0,0,0,0,0,0,0,0,0,-1.3026,-1.3027,-1.3028,-1.3045,-1.3118,-1.3119,-1.3223,-1.3164,0,0,0,0,0,0,0,0,0,0,-1.3091,-1.308,-1.3027,-1.3028,-1.3046,-1.3118,-1.3119,-1.3161,-1.3168,-1.3195,0,-1.3219,0,-1.3224,-1.3232,-1.3233,0,0,0,-1.3041,-1.3074,-1.309,-1.3028,-1.3047,-1.3118,-1.3084,-1.3165,-1.3173,-1.3204,-1.322,-1.3224,-1.3225,-1.3233,-1.3234,-1.3401,-1.3402,0,0,-1.3037,-1.3042,-1.3085,-1.3095,-1.3083,-1.3082,-1.3087,-1.3169,-1.3188,-1.322,-1.3226,-1.3227,-1.3234,-1.3235,-1.34,-1.3401,0,0,0,-1.3028,-1.304,-1.3053,-1.3091,-1.3103,-1.3084,-1.309,-1.3184,-1.3188,-1.3227,-1.3228,-1.3235,-1.3236,-1.3399,-1.3401,-1.3455,0,0,0,-1.3026,-1.3034,-1.3051,-1.3055,-1.3102,-1.3144,-1.3103,-1.3182,-1.3191,-1.3228,-1.3235,-1.3237,-1.3398,-1.34,-1.3451,-1.348,0,0,0,-1.302,-1.3033,-1.3046,-1.3055,-1.3087,-1.3143,-1.3151,-1.3184,-1.3192,-1.3233,-1.3237,-1.3397,-1.34,-1.3448,-1.3475,-1.353,0,0,0,-1.3015,-1.309,-1.3047,-1.3132,-1.3086,-1.3175,-1.3151,-1.3216,-1.3257,-1.3235,-1.3398,-1.34,-1.3447,-1.3471,-1.3526,-1.3578,-1.36,0,0,-1.3113,-1.3102,-1.3152,-1.3115,-1.3213,-1.3163,-1.327,-1.3302,-1.3301,-1.3368,-1.3372,-1.3453,-1.3474,-1.3529,-1.3713,-1.373,0,0,0,-1.3185,-1.3221,-1.3246,-1.3286,-1.3313,-1.3341,-1.3356,-1.3369,-1.3426,-1.3336,-1.3485,-1.3498,-1.353,-1.3555,-1.3569,-1.3598,-1.3411,-1.3411,-1.3411,-1.333,-1.3327,-1.3411,-1.3417,-1.3456,-1.3474,-1.3507,-1.3527,-1.3509,-1.3545,-1.3566,-1.3678,-1.3708,-1.3718,-1.3749,-1.3591,-1.3591,-1.3591,-1.3591,-1.3476,-1.3529,-1.3507,-1.3581,-1.3578,-1.364,-1.3661,-1.3648,-1.3707,-1.3661,-1.3689,-1.3641,-1.3737,-1.3764,-1.3595,-1.3595,-1.3594,-1.3594,-1.3593,-1.3574,-1.3599,-1.3614,-1.3675,-1.3723,-1.3726,-1.3786,-1.378,-1.3774,-1.3801,-1.3826,-1.3825,-1.3827,-1.3813,-1.3813,-1.3814,-1.3814,-1.3814,-1.3815,-1.367,-1.3685,-1.3736,-1.3775,-1.3803,-1.3838,-1.386,-1.3887,-1.3917,-1.3908,-1.3908,-1.3891,-1.3746,-1.3712,-1.3821,-1.382,-1.3819,-1.3818,-1.3818,-1.3824,-1.3789,-1.3867,-1.3896,-1.3944,-1.3995,-1.3986,-1.4044,-1.4066,-1.4097,-1.4074,-1.3967,-1.3956,-1.3944,-1.3916,-1.4071,-1.4071,-1.4071,-1.4071,-1.3909,-1.3903,-1.3984,-1.4031,-1.4075,-1.4077,-1.4171,-1.419,-1.4204,-1.4219,-1.4195,-1.4157,-1.4145,-1.4141,-1.4125,-1.4099,-1.4297,-1.4297,-1.4298,-1.4006,-1.4004,-1.4084,-1.4098,-1.4136,-1.417,-1.4259,-1.4316,-1.4324,-1.4307,-1.4231,-1.4222,-1.416,-1.4139,-1.4121,-1.4096,-1.4048,0,0]},{"header":{"parameterUnit":"m.s-1","parameterCategory":1,"la1":30.2992,"la2":30.254,"lo1":-89.0895,"lo2":-89.0443,"dy":0.0025,"dx":0.0025,"nx":19,"ny":19,"refTime":"2026-05-11T21:00:00:Z","depth":0,"parameterNumber":3,"parameterNumberName":"V-component_of_WINDS"},"data":[0,0,0,2.9791,2.9792,2.9822,2.9822,2.9859,2.9859,0,0,0,0,0,0,0,0,0,0,0,2.9783,2.9783,2.9791,2.9792,2.9822,2.9822,2.9859,2.9859,0,0,0,0,0,0,0,0,0,0,0,2.9783,2.9783,2.9784,2.9792,2.9822,2.9822,2.9859,2.9836,0,0,0,0,0,0,0,0,0,0,2.9807,2.9801,2.9783,2.9784,2.9792,2.9822,2.9822,2.9835,2.9837,2.9845,0,2.9854,0,2.9857,2.9862,2.9862,0,0,0,2.979,2.9799,2.9807,2.9784,2.9792,2.9822,2.9808,2.9836,2.9839,2.9849,2.9855,2.9856,2.9858,2.9862,2.9862,2.9915,2.9915,0,0,2.9789,2.9789,2.9805,2.9808,2.9806,2.9807,2.9809,2.9838,2.9844,2.9855,2.9857,2.9859,2.9862,2.9863,2.9914,2.9915,0,0,0,2.9785,2.9788,2.9794,2.9807,2.9813,2.9808,2.981,2.9843,2.9845,2.9857,2.9859,2.9862,2.9863,2.9914,2.9915,2.9929,0,0,0,2.9784,2.9785,2.9793,2.9794,2.9812,2.9829,2.9814,2.9843,2.9846,2.9859,2.9863,2.9863,2.9914,2.9914,2.9928,2.9935,0,0,0,2.9781,2.9785,2.979,2.9794,2.9807,2.9828,2.9832,2.9844,2.9847,2.9862,2.9863,2.9914,2.9914,2.9927,2.9933,2.9947,0,0,0,2.9777,2.9803,2.979,2.9819,2.9807,2.9838,2.9832,2.9855,2.9869,2.9863,2.9914,2.9914,2.9927,2.9932,2.9946,2.9958,2.9963,0,0,2.9809,2.9807,2.9824,2.9813,2.9847,2.9833,2.9868,2.9881,2.9881,2.9903,2.9904,2.9928,2.9933,2.9947,2.9997,3.0001,0,0,0,2.9834,2.9846,2.9855,2.9869,2.988,2.9889,2.9897,2.9901,2.9919,2.9893,2.9938,2.9941,2.9949,2.9954,2.9958,2.9964,2.9918,2.9918,2.9917,2.9879,2.9879,2.9906,2.991,2.9923,2.9931,2.9941,2.9948,2.9944,2.9954,2.996,2.9991,2.9997,3.0,3.0006,2.9968,2.9968,2.9968,2.9968,2.9924,2.994,2.9934,2.9959,2.9958,2.9978,2.9985,2.9982,2.9999,2.9987,2.9994,2.9978,3.0004,3.001,2.9969,2.9969,2.9969,2.9969,2.9969,2.9951,2.9958,2.9964,2.9984,2.9998,3.0001,3.0017,3.0017,3.0016,3.0023,3.0027,3.0027,3.0025,3.0026,3.0026,3.0026,3.0026,3.0026,3.0026,2.9976,2.9982,2.9997,3.001,3.0018,3.0029,3.0036,3.0043,3.0051,3.0049,3.0049,3.0042,3.0008,2.9998,3.0028,3.0027,3.0027,3.0027,3.0027,3.0018,3.0008,3.0031,3.0039,3.0053,3.0067,3.0066,3.0081,3.0087,3.0095,3.0087,3.0063,3.0059,3.0056,3.0048,3.0089,3.0089,3.0089,3.0089,3.0039,3.0038,3.006,3.0072,3.0085,3.0087,3.0109,3.0115,3.0118,3.0122,3.0116,3.0106,3.0103,3.0101,3.0097,3.0089,3.0139,3.0139,3.0139,3.0063,3.0063,3.0083,3.0088,3.0099,3.0108,3.0129,3.0142,3.0145,3.0141,3.0124,3.0122,3.0105,3.01,3.0094,3.0088,3.0073,0,0]}]]